Bismarck, ND

11:25 AM CST on February 10, 2016 (GMT -0600)
Bismarck Municipal

Weather History for KBIS - August, 2013

Change the Weather History Date:

Saturday, August 31, 2013

  Actual Average Record
Temperature  
Mean Temperature 72 °F 65 °F  
Max Temperature 82 °F 79 °F 101 °F (1953)
Min Temperature 62 °F 52 °F 32 °F (1895)
Degree Days  
Heating Degree Days 0 3  
Month to date heating degree days 6 40  
Since 1 June heating degree days 114 148  
Since 1 July heating degree days 28 55  
Cooling Degree Days 7 3  
Month to date cooling degree days 199 177  
Year to date cooling degree days 480 481  
Since 1 June cooling degree days 468 464  
Growing Degree Days 23 (Base 50)    
Moisture  
Dew Point 56 °F    
Average Humidity 57    
Maximum Humidity 78    
Minimum Humidity 36    
Precipitation  
Precipitation T in 0.06 in 0.85 in (2002)
Month to date precipitation 1.37 2.28  
Year to date precipitation 16.31 13.81  
Snow  
Snow 0.00 in 0.00 in 0.00 in (2002)
Month to date snowfall 0.0 0.0  
Since 1 June snowfall 0.0 0.0  
Since 1 July snowfall 0.0 0.0  
Snow Depth 0.00 in    
Sea Level Pressure  
Sea Level Pressure 29.85 in    
Wind  
Wind Speed 11 mph (WNW)    
Max Wind Speed 28 mph    
Max Gust Speed 34 mph    
Visibility 10 miles    
Events      
T = Trace of Precipitation, MM = Missing Value Source: NWS Daily Summary

Daily Weather History Graph

Daily Weather History Graph

Search for Another Location

Airport or City:

Trip Planner

Search our weather history database for the weather conditions in past years. The results will help you decide how hot, cold, wet, or windy it might be!

Date:

Astronomy

Aug. 31, 2013 Rise Set
Actual Time 7:01 AM CDT 8:23 PM CDT
Civil Twilight 6:30 AM CDT 8:55 PM CDT
Nautical Twilight 5:52 AM CDT 9:32 PM CDT
Astronomical Twilight 5:11 AM CDT 10:13 PM CDT
Moon 2:21 AM CDT (8/31) 5:32 PM CDT (8/31)
Length of Visible Light 14h 24m
Length of Day
13h 21m
Waning Crescent, 21% of the Moon is Illuminated
Aug 31
Waning Crescent
Sep 5
New
Sep 12
First Quarter
Sep 19
Full
Sep 26
Last Quarter

Hourly Weather History & Observations

Time (CDT) Temp. Heat Index Dew Point Humidity Pressure Visibility Wind Dir Wind Speed Gust Speed Precip Events Conditions
12:52 AM 68.0 °F - 61.0 °F 78% 29.84 in 10.0 mi South 5.8 mph - N/A   Clear
1:52 AM 71.1 °F - 62.1 °F 73% 29.83 in 10.0 mi SE 13.8 mph - N/A   Clear
2:52 AM 70.0 °F - 55.9 °F 61% 29.80 in 10.0 mi SSE 9.2 mph - N/A   Clear
3:52 AM 72.0 °F - 57.9 °F 61% 29.79 in 10.0 mi SSE 10.4 mph - N/A   Clear
4:52 AM 72.0 °F - 55.9 °F 57% 29.78 in 10.0 mi South 12.7 mph - N/A   Clear
5:52 AM 70.0 °F - 57.0 °F 63% 29.79 in 10.0 mi SSW 4.6 mph - N/A   Clear
6:52 AM 66.9 °F - 59.0 °F 76% 29.79 in 10.0 mi Calm Calm - N/A   Clear
7:52 AM 69.1 °F - 61.0 °F 75% 29.79 in 10.0 mi Calm Calm - N/A   Clear
8:52 AM 70.0 °F - 62.1 °F 76% 29.81 in 10.0 mi WSW 5.8 mph - N/A   Clear
9:52 AM 75.0 °F - 64.0 °F 69% 29.80 in 10.0 mi West 6.9 mph - N/A   Scattered Clouds
10:52 AM 75.0 °F - 63.0 °F 66% 29.84 in 10.0 mi WNW 15.0 mph 25.3 mph 0.00 in   Scattered Clouds
11:52 AM 73.9 °F - 61.0 °F 64% 29.82 in 10.0 mi NNW 15.0 mph 23.0 mph 0.00 in   Clear
12:52 PM 78.1 °F - 57.0 °F 48% 29.83 in 10.0 mi NW 12.7 mph - N/A   Clear
1:52 PM 80.1 °F 80.1 °F 55.0 °F 42% 29.85 in 10.0 mi NW 20.7 mph 33.4 mph N/A   Clear
2:52 PM 81.0 °F 80.4 °F 53.1 °F 38% 29.86 in 10.0 mi NW 17.3 mph 24.2 mph N/A   Partly Cloudy
3:52 PM 81.0 °F 80.5 °F 54.0 °F 39% 29.86 in 10.0 mi NW 18.4 mph 26.5 mph N/A   Clear
4:52 PM 80.1 °F - 51.1 °F 36% 29.87 in 10.0 mi WNW 17.3 mph 33.4 mph N/A   Clear
5:52 PM 80.1 °F - 51.1 °F 36% 29.87 in 10.0 mi NW 21.9 mph 29.9 mph N/A   Clear
6:52 PM 79.0 °F - 50.0 °F 36% 29.88 in 10.0 mi NW 10.4 mph - N/A   Clear
7:52 PM 75.9 °F - 48.9 °F 38% 29.89 in 10.0 mi NNW 11.5 mph - N/A   Clear
8:52 PM 72.0 °F - 52.0 °F 49% 29.91 in 10.0 mi NW 5.8 mph - N/A   Clear
9:52 PM 70.0 °F - 52.0 °F 53% 29.93 in 10.0 mi NW 8.1 mph - N/A   Clear
10:52 PM 66.0 °F - 54.0 °F 65% 29.95 in 10.0 mi West 5.8 mph - N/A   Clear
11:52 PM 64.0 °F - 54.0 °F 70% 29.96 in 10.0 mi NW 5.8 mph - N/A   Clear